Home   Weather   Kiruna   Past weeks

Flag for Sweden Past Weather in Kiruna, Sweden — Yesterday and Last 2 Weeks

Now
12 °F

Light snow. Overcast.


Feels Like: -3 °F
Forecast: 1 / 11 °F
Wind: 14 mph from South

Location: Kiruna Airport

Current Time: Dec 4, 2016 at 3:12:42 am

Latest Report: Dec 4, 2016 at 2:50 am


Visibility: 1 mi

Pressure: 29.71 "Hg (27.72 "Hg at 532m altitude)

Humidity: 92%

Dew Point: 10 °F

Location of KirunaLocation

Past Weather in Kiruna — Graph

°F

Kiruna Temperature Yesterday

Maximum temperature yesterday: 5 °F (at 11:50 pm)
Minimum temperature yesterday: -8 °F (at 4:50 am)
Average temperature yesterday: -4 °F

High & Low Weather Summary for the Past Weeks

 TemperatureHumidityPressure
High34 °F (Nov 30, 2:20 pm)100% (Nov 19, 1:20 am)29.98 "Hg (Nov 19, 1:20 am)
Low-8 °F (Dec 3, 4:50 am)64% (Dec 1, 12:50 am)29.00 "Hg (Nov 19, 7:50 am)
Average18 °F91%29.56 "Hg
* Reported Nov 19 1:20 am — Dec 4 1:50 am, Kiruna, Weather by CustomWeather, © 2016

Note: Actual official high and low records may vary slightly from our data, if they occured in-between our weather recording intervals... More about our weather records

Advertising

Kiruna Weather History for the Previous 24 Hours

Scroll right to see more
 ConditionsComfort  
Time TempWeatherWind HumidityBarometerVisibility
1:50 am
Sun, Dec 4
9 °FFrigid.10 mph92%29.77 "HgN/A
1:20 am7 °FFrigid.7 mph92%29.77 "HgN/A
12:50 am10 °FCold.12 mph85%29.80 "HgN/A
12:20 am10 °FCold.12 mph92%29.80 "HgN/A
11:50 pm
Sat, Dec 3
5 °FFrigid.6 mph85%29.83 "HgN/A
11:20 pm1 °FFrigid.3 mph92%29.86 "HgN/A
10:50 pm1 °FFrigid.5 mph85%29.86 "HgN/A
10:20 pm0 °FFrigid.5 mph92%29.89 "HgN/A
9:50 pm0 °FFrigid.7 mph84%29.89 "HgN/A
9:20 pm-6 °FFrigid.8 mph84%29.89 "HgN/A
8:50 pm-8 °FClear.8 mph84%29.92 "Hg10 mi
8:20 pm-4 °FClear.9 mph84%29.92 "Hg10 mi
7:50 pm-6 °FClear.10 mph84%29.92 "Hg10 mi
7:20 pm-6 °FClear.8 mph84%29.95 "Hg10 mi
6:50 pm-8 °FClear.9 mph84%29.95 "Hg10 mi
6:20 pm-2 °FFrigid.9 mph84%29.95 "HgN/A
5:50 pm-4 °FFrigid.8 mph84%29.95 "HgN/A
5:20 pm-6 °FFrigid.10 mph84%29.95 "HgN/A
4:50 pm-6 °FFrigid.10 mph84%29.95 "HgN/A
4:20 pm-8 °FFrigid.9 mph84%29.95 "HgN/A
3:50 pm-8 °FFrigid.9 mph84%29.98 "HgN/A
3:20 pm-8 °FFrigid.8 mph84%29.98 "HgN/A
2:50 pm-8 °FFrigid.7 mph84%29.98 "HgN/A
2:20 pm-8 °FFrigid.8 mph84%29.98 "HgN/A
1:50 pm-6 °FFrigid.8 mph77%29.98 "HgN/A
1:20 pm-8 °FFrigid.8 mph84%29.98 "HgN/A
12:50 pm-2 °FFrigid.6 mph84%29.98 "HgN/A
12:20 pm-2 °FFrigid.8 mph84%29.98 "HgN/A
11:50 am-4 °FFrigid.8 mph84%29.98 "HgN/A
11:20 am-8 °FFrigid.6 mph77%29.98 "HgN/A
10:50 am-6 °FFrigid.6 mph77%29.98 "HgN/A
10:20 am-6 °FFrigid.6 mph84%29.98 "HgN/A
9:50 am-4 °FFrigid.7 mph84%29.98 "HgN/A
9:20 am-6 °FFrigid.8 mph84%29.95 "HgN/A
8:50 am-4 °FFrigid.7 mph84%29.95 "HgN/A
8:20 am-2 °FFrigid.8 mph84%29.95 "HgN/A
7:50 am-4 °FFrigid.7 mph84%29.95 "HgN/A
7:20 am-4 °FFrigid.9 mph84%29.95 "HgN/A
6:50 am-4 °FFrigid.7 mph84%29.92 "HgN/A
6:20 am-6 °FFrigid.7 mph84%29.92 "HgN/A
5:50 am-4 °FFrigid.7 mph92%29.92 "HgN/A
5:20 am-2 °FFrigid.8 mph84%29.92 "HgN/A
4:50 am-8 °FFrigid.5 mph84%29.92 "HgN/A
4:20 am-6 °FFrigid.6 mph84%29.92 "HgN/A
3:50 am0 °FFrigid.6 mph84%29.92 "HgN/A
3:20 am-6 °FFrigid.6 mph84%29.92 "HgN/A
Weather by CustomWeather, © 2016

See weather overviewHow to use our weather pages